RH
9 9 9 8 8 7 6 5 5 5 4 4 4 5 5 4 4 5 5 5 6 6 6 6 5 10 15 23 29 46 47 49 49 54 58 54 51 46 47 46 50 43 36 35 38
10 10 9 9 8 8 7 6 6 5 5 5 4 4 4 4 4 5 6 5 6 6 6 7 9 10 16 21 35 40 44 49 52 50 45 47 44 42 44 43 49 44 39 38 39
11 10 10 9 9 8 7 7 6 6 5 5 5 4 4 4 7 9 6 6 6 6 6 9 10 11 16 19 32 36 38 42 44 49 38 39 36 32 39 43 48 44 44 41 38
11 10 10 9 9 8 7 7 7 6 6 5 5 5 5 5 12 9 5 6 5 6 7 9 10 11 12 17 25 29 24 33 44 42 39 42 36 37 32 33 34 38 42 42 38
11 10 10 9 8 8 7 7 7 7 6 6 5 5 5 6 6 9 6 5 5 5 7 10 10 10 11 16 17 17 20 26 30 39 44 35 38 43 37 35 38 40 36 40 39
11 10 10 9 9 8 7 7 7 6 6 6 6 5 6 8 9 8 7 6 5 6 8 9 9 10 11 13 16 18 20 26 28 32 34 36 39 40 40 38 38 43 41 42 41
11 10 10 9 9 8 7 7 6 6 6 7 7 6 6 6 10 9 7 6 6 6 7 8 8 9 10 12 15 18 19 23 23 24 27 31 41 35 41 40 43 57 61 61 43
11 10 10 10 9 8 8 7 7 7 7 7 7 7 6 7 9 8 7 7 7 8 8 8 8 8 9 11 14 16 20 22 24 23 24 26 34 35 42 44 51 56 55 53 70
11 11 10 10 9 9 8 7 7 7 7 8 9 11 9 10 9 9 9 8 9 10 10 9 9 10 10 13 14 14 24 29 28 27 28 28 32 40 45 51 43 44 43 57 74
11 11 10 10 10 9 9 10 11 10 10 11 10 12 10 12 11 12 10 10 11 11 10 9 10 11 13 16 19 23 31 29 26 22 27 28 36 35 42 43 41 45 47 47 51
12 12 11 10 11 10 12 13 15 17 15 13 12 10 15 15 15 14 12 11 11 12 11 11 12 12 11 12 15 19 23 25 22 23 25 30 35 34 39 45 45 46 48 48 53
12 11 11 11 11 11 14 16 15 16 15 14 13 12 14 15 15 14 13 13 13 12 11 12 13 12 12 13 15 15 14 17 18 20 25 29 38 42 46 48 45 44 45 47 47
14 13 13 12 13 14 17 18 18 17 15 12 11 12 14 15 14 15 14 13 14 14 13 13 11 12 13 12 13 13 13 13 15 18 23 27 31 42 44 49 46 45 48 51 44
16 15 14 14 15 16 19 18 18 17 20 16 14 12 12 15 12 15 15 16 15 14 14 15 12 13 13 14 13 12 11 12 13 18 21 23 27 35 39 40 45 42 48 50 41
16 15 15 15 16 18 20 19 19 17 17 16 15 14 12 12 13 13 14 17 15 15 15 15 14 15 16 15 14 12 12 14 15 18 18 20 24 22 32 35 33 41 49 45 43
16 16 15 15 14 16 19 18 18 21 19 16 14 14 14 13 14 13 14 16 16 16 16 15 15 17 16 16 16 12 12 15 18 18 19 22 22 22 33 33 36 40 45 44 44
14 13 12 13 13 14 15 15 18 25 16 15 16 15 14 14 14 13 15 16 17 19 19 16 16 17 17 16 15 14 16 20 19 22 21 30 36 38 41 41 38 41 44 36 36
14 14 13 12 12 15 13 15 20 15 14 17 17 16 16 15 14 14 15 17 16 17 20 23 22 15 16 21 21 18 17 22 22 26 29 30 36 39 41 46 42 42 41 41 50
19 19 17 15 14 17 17 20 17 16 15 17 18 17 17 17 17 16 16 17 16 19 22 21 20 19 22 24 26 26 23 21 22 24 26 30 36 40 37 40 47 46 46 52 59
20 20 19 21 18 22 23 22 17 13 17 16 19 18 19 18 18 18 18 15 16 18 21 20 20 23 25 26 24 26 26 23 26 24 27 33 42 48 52 50 49 56 58 60 62
16 23 24 19 20 25 27 23 16 12 14 18 19 19 18 18 17 17 16 15 15 17 22 23 23 19 27 29 27 28 26 28 25 28 29 41 47 49 48 54 52 61 70 73 76
15 26 23 21 19 23 26 21 17 13 12 16 18 18 18 17 17 16 16 18 20 19 24 23 26 24 26 29 29 28 28 29 29 25 32 41 49 45 47 48 48 53 57 59 60
15 26 26 27 26 24 21 21 19 17 13 17 18 18 17 17 16 16 16 20 23 27 25 25 30 30 26 29 28 29 26 27 31 29 27 33 43 42 43 49 50 57 61 61 51
24 35 32 31 30 31 30 28 26 25 22 20 20 19 17 17 17 16 16 23 24 25 26 27 31 28 25 26 31 34 31 27 31 32 29 30 40 45 47 47 49 51 54 57 52
28 39 40 43 36 39 36 32 28 25 26 27 25 21 18 17 16 16 17 23 25 26 26 30 33 32 29 30 31 38 38 37 39 33 32 31 37 37 40 44 51 48 49 54 56
30 38 39 40 39 37 34 33 28 26 29 30 31 26 20 18 16 16 18 25 28 30 30 31 30 33 33 30 32 39 37 40 37 36 41 40 39 35 43 48 48 48 47 43 54
26 28 37 38 38 38 38 40 37 33 31 37 38 32 30 23 17 15 17 24 28 31 34 38 33 36 34 32 33 38 41 45 48 49 47 42 35 37 44 48 49 49 47 45 55